Weather History for Ramona, CA

Change the Weather History Date:

Thursday, May 23, 2013

  Actual Average Record
Temperature  
Mean Temperature 62 °F 63 °F  
Max Temperature 73 °F 77 °F 97 °F (2001)
Min Temperature 50 °F 49 °F 38 °F (1975)
Degree Days  
Heating Degree Days 3 3  
Month to date heating degree days 48 110  
Since 1 July heating degree days 2323 2502  
Cooling Degree Days 0 1  
Month to date cooling degree days 40 11  
Year to date cooling degree days 41 16  
Growing Degree Days 11 (Base 50)    
Moisture  
Dew Point 47 °F    
Average Humidity 61    
Maximum Humidity 86    
Minimum Humidity 35    
Precipitation  
Precipitation 0.00 in 0.00 in 0.36 in (2008)
Month to date precipitation 0.47 0.29  
Year to date precipitation 4.50 11.20  
Since 1 July precipitation 8.14 15.91  
Snow  
Snow 0.00 in - - ()
Month to date snowfall 0.0  
Year to date snowfall 0.0  
Since 1 July snowfall 0.0  
Snow Depth 0.00 in    
Sea Level Pressure  
Sea Level Pressure 29.88 in    
Wind  
Wind Speed 6 mph (SW)    
Max Wind Speed 16 mph    
Max Gust Speed 22 mph    
Visibility 9 miles    
Events      
T = Trace of Precipitation, MM = Missing Value Source: NWS Daily Summary

Daily Weather History Graph

Daily Weather History Graph

Search for Another Location

Airport:

Trip Planner

Search our weather history database for the weather conditions in past years. The results will help you decide how hot, cold, wet, or windy it might be!

Date:

Astronomy

May. 23, 2013 Rise Set
Actual Time 5:43 AM PDT 7:46 PM PDT
Civil Twilight 5:15 AM PDT 8:13 PM PDT
Nautical Twilight 4:41 AM PDT 8:47 PM PDT
Astronomical Twilight 4:05 AM PDT 9:24 PM PDT
Moon 6:27 PM PDT (5/23) 4:26 AM PDT (5/23)
Length of Visible Light 14h 58m
Length of Day
14h 02m
Waxing Gibbous, 97% of the Moon is Illuminated
May 23
Waxing Gibbous
May 24
Full
May 31
Last Quarter
Jun 8
New
Jun 16
First Quarter

Hourly Weather History & Observations

Time (PDT) Temp. Dew Point Humidity Pressure Visibility Wind Dir Wind Speed Gust Speed Precip Events Conditions
12:53 AM 55.9 °F 46.9 °F 72% 29.83 in 10.0 mi Calm Calm - N/A   Overcast
1:53 AM 54.0 °F 46.0 °F 75% 29.82 in 10.0 mi Calm Calm - N/A   Mostly Cloudy
2:53 AM 55.0 °F 46.0 °F 72% 29.82 in 10.0 mi SSE 4.6 mph - N/A   Overcast
3:53 AM 54.0 °F 48.0 °F 80% 29.81 in 9.0 mi South 5.8 mph - N/A   Overcast
4:53 AM 52.0 °F 46.9 °F 83% 29.82 in 9.0 mi South 6.9 mph - N/A   Overcast
5:53 AM 50.0 °F 46.9 °F 89% 29.84 in 7.0 mi South 3.5 mph - N/A   Overcast
6:53 AM 53.1 °F 48.0 °F 83% 29.86 in 8.0 mi Calm Calm - N/A   Overcast
7:16 AM 55.4 °F 48.2 °F 77% 29.89 in 8.0 mi South 4.6 mph - N/A   Scattered Clouds
7:48 AM 57.2 °F 46.4 °F 67% 29.89 in 9.0 mi SSW 8.1 mph - N/A   Mostly Cloudy
7:53 AM 57.0 °F 46.9 °F 69% 29.87 in 9.0 mi SSW 8.1 mph - N/A   Scattered Clouds
8:53 AM 60.1 °F 46.0 °F 60% 29.88 in 10.0 mi Variable 5.8 mph - N/A   Scattered Clouds
9:53 AM 63.0 °F 43.0 °F 48% 29.89 in 10.0 mi SSW 6.9 mph - N/A   Partly Cloudy
10:53 AM 68.0 °F 46.0 °F 45% 29.88 in 10.0 mi South 9.2 mph - N/A   Clear
11:53 AM 69.1 °F 46.0 °F 44% 29.89 in 10.0 mi SSW 8.1 mph - N/A   Clear
12:53 PM 71.1 °F 43.0 °F 36% 29.88 in 10.0 mi SSW 5.8 mph - N/A   Clear
1:53 PM 72.0 °F 44.1 °F 37% 29.88 in 10.0 mi South 10.4 mph 17.3 mph N/A   Clear
2:53 PM 71.1 °F 45.0 °F 39% 29.89 in 10.0 mi SW 12.7 mph 21.9 mph N/A   Clear
3:53 PM 70.0 °F 43.0 °F 38% 29.88 in 10.0 mi WSW 11.5 mph - N/A   Clear
4:53 PM 69.1 °F 48.0 °F 47% 29.88 in 10.0 mi SW 8.1 mph - N/A   Clear
5:53 PM 66.0 °F 48.9 °F 54% 29.88 in 10.0 mi WSW 9.2 mph - N/A   Clear
6:53 PM 63.0 °F 50.0 °F 63% 29.88 in 10.0 mi WSW 6.9 mph - N/A   Clear
7:53 PM 57.0 °F 50.0 °F 77% 29.91 in 8.0 mi West 6.9 mph - N/A   Scattered Clouds
8:20 PM 55.4 °F 50.0 °F 82% 29.93 in 9.0 mi WNW 5.8 mph - N/A   Mostly Cloudy
8:53 PM 55.9 °F 51.1 °F 84% 29.91 in 9.0 mi WNW 4.6 mph - N/A   Overcast
9:53 PM 57.0 °F 51.1 °F 81% 29.93 in 9.0 mi WNW 5.8 mph - N/A   Overcast
10:53 PM 57.0 °F 51.1 °F 81% 29.94 in 10.0 mi WNW 3.5 mph - N/A   Overcast
11:53 PM 57.0 °F 50.0 °F 77% 29.92 in 10.0 mi Calm Calm - N/A   Overcast